RH
2022 2008 2002 1952 1920 1898 1887 1897 1919 1935 1924 1872 1767 1646 1542 1487 1476 1454 1460 1476 1509 1590 1761 1989 2384 2761 3116 3412 3654 3805 3915 3950 3968 4130 4382 4682 5194 5802 6352 6662 7006 7309 7559 7723 8168 8382 8437 8366 8419 8556 8674 8601 8509 8293 8085 8052 8107 8090 8007 7952 7986 8033 8038 8026 8036 8070 8087 8026 7938
2035 2030 2029 2029 2013 1952 1891 1853 1809 1787 1787 1801 1834 1789 1718 1632 1559 1515 1471 1421 1429 1479 1553 1715 2007 2416 2857 3278 3585 3827 3934 3862 3855 3986 4226 4455 4746 5319 5951 6467 6761 7074 7390 7634 7804 8041 8261 8356 8432 8562 8664 8639 8343 8178 8132 8182 8205 8174 8114 8057 8090 8143 8134 7998 7929 7846 7811 7920 7888
1945 1980 2019 2046 2029 2007 1963 1903 1848 1804 1766 1755 1771 1828 1871 1857 1797 1698 1591 1520 1490 1479 1473 1533 1727 2043 2420 2866 3348 3718 3949 3968 3891 3938 4100 4368 4609 4976 5497 6250 6520 6793 7105 7441 7555 7717 7896 8055 8134 8252 8400 8579 8236 8093 8082 8148 8211 8218 8218 8188 8170 8214 8211 8090 8032 7866 7723 7865 7888
1855 1918 1973 1995 2022 2038 2038 2008 1970 1898 1870 1815 1788 1793 1834 1899 1951 1918 1846 1773 1718 1621 1545 1522 1656 1855 2090 2305 2835 3321 3708 4015 4093 4090 4115 4294 4593 4845 5174 5679 6279 6571 6757 6965 7135 7344 7546 7716 7793 7851 7975 8182 8236 8233 8165 8126 8085 8114 8163 8266 8302 8332 8332 8271 8173 8021 7893 7861 7927
1788 1838 1893 1930 1985 2043 2053 2080 2066 2027 1997 1970 1926 1843 1810 1804 1894 1940 1978 1934 1857 1789 1718 1674 1748 1854 1950 1935 2333 2791 3343 3907 4184 4293 4334 4396 4601 4839 5102 5404 5990 6350 6573 6665 6782 7002 7241 7407 7554 7649 7715 7810 7904 8020 8092 7991 7922 7998 8146 8390 8392 8409 8359 8218 8166 8161 8112 7926 7965
1757 1779 1812 1867 1949 1996 2062 2080 2107 2112 2125 2105 2072 1989 1909 1841 1830 1871 1930 1993 1959 1932 1903 1876 1861 1857 1840 1744 1912 2299 2829 3510 4122 4452 4562 4574 4730 4909 5159 5381 5712 6120 6444 6562 6646 6771 6949 7170 7402 7546 7652 7729 7859 7926 7932 7932 7888 7923 8074 8359 8446 8468 8410 8245 8201 8218 8213 8146 8126
1709 1728 1784 1848 1947 2013 2095 2144 2201 2205 2213 2199 2157 2112 2029 1958 1932 1921 1942 1962 1985 2007 2061 2101 2037 1975 1894 1813 1974 2172 2471 2940 3734 4312 4662 4770 4868 5038 5248 5451 5672 5985 6334 6599 6632 6683 6771 6875 7090 7281 7468 7638 7716 7832 7894 7851 7906 7941 8002 8087 8305 8437 8510 8510 8310 8229 8212 8229 8266
1645 1686 1761 1837 1912 2009 2089 2205 2288 2320 2320 2300 2285 2265 2212 2151 2097 2042 1987 1971 2013 2073 2151 2222 2186 2124 2050 1954 2115 2226 2362 2553 3246 4013 4644 4954 5062 5235 5474 5648 5793 6046 6337 6659 6724 6726 6718 6735 6853 7029 7204 7363 7393 7466 7575 7720 7884 7985 8051 8095 8230 8276 8309 8472 8516 8448 8344 8273 8218
1596 1635 1721 1796 1883 1967 2074 2190 2315 2379 2418 2435 2423 2435 2399 2360 2302 2220 2160 2127 2155 2188 2223 2315 2312 2298 2215 2146 2127 2236 2359 2435 2893 3644 4405 4933 5196 5471 5746 6001 6091 6196 6332 6545 6686 6734 6727 6691 6763 6923 7096 7228 7212 7295 7431 7625 7742 7868 8046 8314 8463 8452 8400 8401 8620 8686 8657 8530 8399
1609 1653 1695 1739 1820 1888 1976 2132 2263 2359 2452 2519 2546 2568 2585 2574 2505 2437 2376 2338 2330 2335 2348 2390 2413 2440 2416 2347 2300 2352 2405 2426 2696 3347 4129 4804 5164 5536 5896 6223 6314 6330 6336 6363 6504 6601 6660 6685 6718 6798 6949 7156 7248 7313 7404 7545 7629 7702 7874 8263 8510 8618 8651 8640 8651 8738 8788 8723 8580
1670 1691 1691 1713 1763 1811 1873 2005 2149 2290 2439 2554 2655 2731 2787 2782 2747 2692 2638 2577 2590 2595 2576 2509 2540 2548 2527 2438 2303 2322 2410 2473 2632 3163 3902 4648 5061 5489 5890 6207 6321 6362 6347 6277 6329 6372 6477 6537 6602 6676 6785 6976 7179 7311 7390 7423 7508 7596 7730 8009 8459 8723 8843 8838 8810 8794 8766 8755 8695
1728 1711 1713 1718 1721 1737 1796 1885 2024 2176 2371 2554 2712 2881 2999 3034 3027 2992 2938 2898 2939 2930 2900 2831 2757 2655 2572 2488 2342 2369 2445 2521 2622 3082 3761 4546 5015 5437 5822 6117 6265 6360 6389 6338 6230 6165 6132 6140 6218 6363 6526 6766 7011 7166 7263 7241 7304 7421 7587 7782 8177 8518 8751 8821 8865 8876 8843 8826 8793
1748 1751 1739 1733 1707 1715 1748 1775 1871 2037 2220 2457 2709 2968 3151 3268 3302 3299 3265 3229 3206 3167 3133 3100 2956 2802 2662 2577 2505 2473 2513 2561 2639 3035 3696 4501 5018 5446 5816 6154 6257 6352 6395 6407 6255 6029 5783 5593 5662 5849 6100 6399 6677 6840 6933 6893 6844 6916 7087 7350 7647 7982 8273 8547 8695 8771 8793 8790 8752
1760 1737 1745 1739 1735 1732 1734 1760 1805 1895 2058 2267 2594 2921 3223 3430 3524 3571 3556 3544 3502 3455 3418 3296 3032 2881 2816 2760 2685 2611 2579 2624 2694 3067 3662 4500 5062 5496 5877 6237 6290 6337 6388 6405 6302 6017 5656 5262 5213 5317 5573 5921 6288 6484 6562 6494 6313 6243 6307 6515 6841 7178 7534 7882 8170 8390 8541 8607 8604
1757 1760 1751 1755 1771 1790 1780 1777 1815 1859 1955 2141 2451 2818 3171 3501 3677 3796 3824 3820 3807 3815 3787 3672 3331 3115 3020 2924 2826 2752 2705 2694 2843 3171 3712 4540 5130 5537 5877 6191 6249 6309 6377 6428 6376 6118 5718 5246 5010 4959 5095 5395 5822 6117 6283 6213 5980 5841 5787 5899 6167 6484 6816 7147 7454 7698 7918 8069 8162
1780 1793 1809 1827 1854 1884 1918 1920 1935 1949 1980 2079 2327 2691 3081 3496 3803 3981 4084 4127 4148 4180 4160 4024 3779 3569 3361 3131 2973 2863 2811 2815 3001 3340 3830 4622 5232 5609 5845 6023 6166 6320 6443 6488 6484 6295 5929 5393 5034 4828 4802 4959 5382 5739 5987 6038 5898 5766 5721 5842 6125 6459 6803 7131 7323 7421 7476 7495 7484
1834 1864 1924 1942 1985 2032 2080 2132 2117 2102 2097 2129 2268 2549 2983 3481 3903 4182 4367 4474 4523 4566 4576 4549 4381 4131 3788 3430 3224 3065 2978 2985 3237 3540 3989 4724 5348 5673 5850 5913 6089 6283 6461 6570 6588 6504 6223 5649 5230 4928 4734 4730 5023 5360 5659 5844 5822 5787 5851 6063 6497 6979 7451 7845 7943 7899 7729 7534 7352
1957 2006 2074 2123 2166 2227 2284 2324 2288 2204 2130 2070 2183 2479 2945 3537 4065 4448 4692 4807 4925 5015 5081 5099 5027 4779 4387 3897 3565 3326 3213 3283 3576 3849 4254 4900 5510 5770 5854 5887 6012 6173 6339 6522 6643 6694 6504 5929 5524 5196 4920 4734 4828 5037 5326 5565 5714 5787 5901 6130 6648 7297 7947 8420 8442 8382 8218 7965 7723
2143 2212 2277 2321 2359 2419 2476 2498 2423 2287 2124 1989 2145 2497 3009 3640 4257 4696 5009 5216 5463 5688 5832 5859 5727 5482 5090 4513 4013 3689 3584 3645 3939 4217 4611 5194 5741 6001 6034 5946 5982 6085 6224 6335 6616 6780 6701 6223 5821 5504 5212 4970 4828 4862 5001 5248 5507 5696 5864 6041 6491 7151 7866 8460 8560 8546 8437 8322 8163
2360 2409 2463 2502 2523 2562 2602 2619 2489 2299 2116 2049 2223 2610 3118 3767 4377 4890 5302 5688 6062 6324 6490 6473 6345 6113 5721 5149 4549 4152 3990 4045 4418 4798 5199 5598 6063 6360 6443 6228 6074 6088 6191 6284 6527 6680 6668 6390 6077 5787 5539 5276 5038 4865 4857 4974 5279 5524 5730 5903 6221 6736 7362 8001 8301 8472 8535 8536 8465
2573 2605 2633 2611 2605 2644 2679 2690 2525 2362 2210 2162 2332 2701 3216 3873 4504 5058 5594 6068 6458 6726 6855 6869 6807 6639 6294 5738 5077 4589 4366 4466 5115 5638 6029 6252 6599 6839 6878 6548 6274 6152 6160 6237 6361 6483 6505 6418 6211 5993 5772 5549 5279 5043 4862 4830 5057 5329 5568 5790 6023 6357 6789 7317 7777 8165 8431 8591 8579
2759 2776 2759 2754 2737 2734 2734 2712 2596 2483 2391 2338 2491 2840 3351 3972 4627 5246 5868 6430 6815 7055 7171 7237 7252 7109 6804 6215 5471 4950 4748 5004 5930 6556 6904 6996 7176 7261 7168 6817 6471 6276 6184 6221 6306 6411 6466 6477 6299 6095 5883 5701 5482 5248 5009 4843 4901 5137 5420 5704 5906 6091 6360 6724 7134 7568 7966 8257 8362
2921 2904 2866 2849 2795 2784 2789 2750 2745 2691 2655 2618 2763 3073 3518 4105 4815 5588 6299 6937 7259 7424 7460 7473 7493 7380 7056 6428 5573 5109 5077 5649 6730 7330 7520 7472 7422 7373 7245 6977 6670 6411 6268 6241 6317 6462 6580 6599 6462 6248 6012 5771 5583 5399 5182 4983 4895 5017 5250 5583 5804 5931 6070 6313 6527 6821 7129 7425 7617
3080 2998 2932 2888 2888 2904 2920 2920 2923 2938 2951 2941 3037 3270 3715 4348 5237 6099 6816 7279 7498 7630 7680 7666 7602 7417 7009 6280 5445 5124 5371 6299 7359 7854 7922 7724 7501 7367 7261 7109 6777 6461 6274 6272 6461 6663 6813 6859 6732 6523 6251 5945 5716 5543 5371 5191 5049 5057 5238 5551 5810 5940 6026 6123 6181 6291 6406 6560 6702
3195 3096 3013 2975 3035 3019 2997 3013 3071 3109 3143 3172 3268 3534 4005 4763 5710 6479 7057 7402 7624 7759 7834 7828 7676 7331 6770 5966 5514 5711 6389 7302 7924 8187 8168 7982 7630 7439 7272 7087 6790 6570 6537 6779 6876 7042 7181 7172 7075 6884 6621 6301 6032 5849 5663 5501 5359 5362 5484 5778 6020 6141 6208 6245 6238 6235 6224 6199 6177
3294 3195 3151 3123 3118 3068 3016 3049 3170 3240 3313 3331 3476 3797 4341 5179 6036 6685 7154 7490 7709 7855 7938 7930 7699 7197 6637 6236 6554 7101 7640 8024 8198 8274 8204 8043 7670 7439 7294 7174 7027 7142 7434 7849 7776 7682 7508 7274 7260 7213 7098 6857 6572 6363 6187 6040 5960 5975 6084 6284 6429 6505 6535 6560 6541 6501 6413 6276 6122
3398 3332 3304 3266 3151 3060 3038 3104 3240 3352 3445 3501 3682 4069 4696 5532 6277 6855 7258 7600 7814 7956 8016 7989 7548 7099 6893 7245 7745 7982 8059 8137 8252 8282 8220 8048 7955 7988 8059 8120 8083 8088 8171 8271 8245 7913 7520 7355 7585 7717 7694 7461 7223 7037 6887 6747 6691 6709 6747 6807 6826 6833 6818 6804 6782 6689 6552 6388 6207
3505 3451 3404 3321 3162 3060 3032 3130 3317 3462 3588 3666 3896 4325 4962 5801 6529 7074 7482 7793 8001 8101 8075 7888 7316 7145 7386 8027 8129 8097 8060 8078 8115 8132 8143 8129 8210 8313 8368 8384 8357 8322 8273 8216 8018 7838 7789 8023 8302 8394 8311 8060 7891 7727 7593 7462 7362 7287 7232 7129 7024 6931 6838 6805 6745 6634 6513 6371 6198
3630 3570 3501 3363 3178 3071 3054 3185 3416 3613 3752 3880 4103 4532 5170 5998 6740 7290 7684 7959 8130 8180 8038 7627 7145 7307 7795 8277 8203 8130 8070 8085 8018 7987 7995 8030 8111 8209 8334 8456 8471 8424 8315 8163 8070 8174 8353 8593 8657 8660 8601 8495 8364 8246 8086 7899 7772 7598 7426 7210 6996 6849 6728 6640 6552 6448 6343 6236 6092
3820 3715 3582 3396 3195 3071 3104 3268 3532 3762 3934 4059 4291 4694 5320 6166 6944 7511 7862 8100 8195 8215 7977 7367 7057 7375 7918 8324 8306 8198 8121 8163 8093 8086 8066 8113 8172 8202 8234 8320 8443 8446 8399 8359 8430 8488 8509 8551 8582 8613 8630 8625 8545 8434 8294 8127 7924 7693 7438 7163 6933 6746 6598 6494 6384 6285 6169 6051 5915
3955 3827 3639 3401 3193 3118 3184 3398 3705 3930 4108 4214 4413 4802 5441 6355 7158 7688 8018 8191 8230 8147 7840 7220 7005 7298 7841 8335 8390 8307 8238 8271 8245 8221 8218 8248 8246 8239 8257 8313 8416 8432 8439 8416 8399 8413 8445 8490 8538 8577 8602 8586 8526 8416 8279 8095 7875 7616 7366 7114 6872 6674 6509 6380 6253 6138 6003 5840 5610
3987 3850 3633 3386 3192 3175 3287 3581 3902 4104 4221 4267 4454 4873 5571 6537 7392 7879 8127 8238 8223 8081 7785 7230 7038 7202 7647 8196 8359 8377 8305 8264 8271 8263 8259 8263 8252 8262 8276 8324 8388 8379 8359 8360 8355 8380 8434 8460 8519 8549 8538 8533 8448 8310 8146 7954 7701 7470 7234 7009 6800 6610 6440 6288 6125 5935 5713 5470 5158
3911 3779 3575 3355 3230 3271 3479 3786 4085 4229 4263 4280 4513 5038 5805 6813 7609 8027 8208 8258 8218 8091 7867 7445 7192 7209 7466 7920 8227 8361 8366 8305 8277 8272 8287 8329 8285 8295 8321 8335 8388 8368 8326 8299 8361 8370 8406 8454 8463 8457 8449 8415 8305 8152 7954 7735 7504 7274 7054 6832 6650 6477 6275 6059 5804 5512 5198 4888 4588
3775 3670 3510 3354 3330 3461 3699 4024 4243 4310 4337 4352 4662 5277 6165 7211 7859 8165 8260 8256 8204 8152 8015 7741 7393 7234 7332 7722 8080 8299 8359 8318 8332 8322 8302 8285 8340 8377 8428 8459 8441 8404 8359 8323 8348 8412 8429 8434 8417 8387 8359 8282 8126 7912 7732 7512 7298 7073 6855 6643 6421 6171 5893 5598 5260 4939 4587 4270 4070
3658 3570 3493 3413 3516 3715 3960 4240 4393 4433 4448 4514 4964 5688 6612 7638 8079 8273 8300 8256 8259 8226 8141 7955 7477 7203 7220 7612 8028 8227 8306 8310 8320 8364 8380 8377 8388 8441 8500 8525 8507 8454 8390 8376 8401 8429 8412 8409 8380 8342 8238 8068 7835 7610 7404 7245 7049 6836 6600 6335 6090 5766 5405 5042 4712 4404 4138 3926 3866
3618 3585 3561 3577 3712 3945 4212 4462 4560 4601 4673 4871 5445 6269 7149 7912 8188 8307 8316 8297 8269 8264 8196 7971 7419 7123 7159 7571 8022 8271 8350 8287 8359 8445 8487 8520 8530 8538 8516 8492 8518 8498 8467 8450 8473 8462 8430 8394 8375 8243 8041 7745 7476 7258 7072 6919 6754 6533 6292 6034 5729 5390 5032 4705 4454 4232 4104 4044 4085
3655 3648 3684 3785 3965 4209 4462 4701 4809 4921 5116 5435 6127 6915 7629 8080 8262 8322 8308 8271 8244 8247 8176 7835 7239 7020 7139 7565 8022 8288 8345 8186 8322 8439 8534 8595 8591 8554 8496 8514 8496 8496 8504 8498 8509 8494 8485 8457 8364 8139 7796 7389 7145 6970 6784 6615 6448 6215 5982 5740 5485 5198 4941 4749 4594 4507 4458 4448 4471
3734 3770 3877 4024 4235 4479 4746 4998 5182 5393 5688 6140 6815 7425 7919 8205 8296 8339 8302 8271 8233 8203 8023 7561 7055 6937 7124 7574 8044 8288 8310 8166 8257 8420 8584 8589 8588 8540 8523 8548 8562 8557 8546 8523 8509 8483 8463 8435 8273 7932 7510 7134 6956 6770 6577 6388 6196 6013 5826 5655 5473 5315 5134 5049 5012 4963 4937 4894 4902
3796 3898 4082 4299 4552 4816 5113 5384 5646 5944 6326 6777 7320 7741 8081 8315 8344 8355 8327 8291 8280 8143 7850 7348 6976 6937 7168 7612 8102 8282 8280 8216 8252 8414 8573 8611 8565 8549 8547 8584 8617 8606 8595 8556 8520 8483 8424 8294 7963 7545 7168 6924 6795 6616 6466 6285 6139 6010 5884 5766 5680 5578 5496 5464 5463 5445 5388 5355 5323
3911 4090 4355 4657 4979 5296 5605 5866 6163 6488 6855 7280 7662 7945 8159 8329 8371 8366 8345 8341 8307 8171 7883 7438 7118 7069 7267 7693 8163 8352 8294 8143 8280 8412 8512 8606 8597 8589 8584 8601 8617 8639 8622 8586 8538 8421 8254 7982 7523 7101 6809 6688 6614 6511 6434 6334 6257 6162 6102 6024 5941 5898 5869 5873 5841 5829 5794 5778 5740
4092 4386 4759 5143 5516 5869 6175 6414 6667 6957 7235 7576 7877 8087 8224 8318 8382 8366 8334 8324 8332 8252 8077 7732 7404 7295 7418 7809 8238 8382 8328 8162 8331 8396 8459 8590 8617 8623 8607 8607 8606 8589 8580 8522 8376 8179 7906 7565 7127 6782 6580 6571 6554 6540 6499 6453 6437 6394 6348 6273 6198 6179 6180 6204 6197 6179 6150 6126 6096